Regional Weather Roundup
Issued by NWS

Home | Current Version | Previous Version | Text Only | Print | Product List | Glossary Off
Versions: 1 2 3 4 5 6 7 8 9 10 11 12 13 14 15 16 17 18 19 20 21 22 23 24 25 26 27 28 29 30 31 32 33 34 35 36 37 38 39 40 41 42 43 44 45 46 47 48 49 50

817
ASUS45 KPSR 232210
RWRAZ

ARIZONA HOURLY REGIONAL WEATHER ROUNDUP
NATIONAL WEATHER SERVICE PHOENIX AZ
300 PM MST SUN JUL 23 2017

NOTE: FAIR INDICATES FEW OR NO CLOUDS BELOW 12,000 FEET WITH NO
SIGNIFICANT WEATHER AND/OR OBSTRUCTIONS TO VISIBILITY.

AZZ001>003-036-232300-
NORTHWEST ARIZONA

CITY           SKY/WX    TMP DP  RH WIND       PRES   REMARKS
BULLHEAD CITY  MOSUNNY  109  57  18 S15G22    29.69  HX 109
KINGMAN        SUNNY     98  59  27 SW17G24   29.94F
$$

AZZ004>008-015-016-018-232300-
NORTH CENTRAL ARIZONA

CITY           SKY/WX    TMP DP  RH WIND       PRES   REMARKS
GRAND CANYON   CLOUDY    76  56  49 S6        30.22F
WILLIAMS       PTSUNNY   70  61  73 CALM      30.22F
PRESCOTT       MOSUNNY   82  66  58 SW12      30.08F
FLAGSTAFF      TSTM      60  58  92 S8        30.28R
PAYSON         PTSUNNY   82  63  51 NE7G13    30.11F THUNDER
PAGE           SUNNY     98  44  15 N6        29.96F
$$

AZZ009>014-017-232300-
NORTHEAST ARIZONA

CITY           SKY/WX    TMP DP  RH WIND       PRES   REMARKS
WINSLOW        MOSUNNY   90  52  27 S8G17     30.03F
SAINT JOHNS    PTSUNNY   77  58  51 SW12      30.11F
WINDOW ROCK    MOSUNNY   86  49  27 CALM      30.18F
SHOW LOW       CLOUDY    73  57  56 S7        30.18F
$$

AZZ540-542>544-546-548-232300-
GREATER PHOENIX AREA

CITY           SKY/WX    TMP DP  RH WIND       PRES   REMARKS
PHOENIX        MOSUNNY  100  61  27 VRB5      29.76F HX 101
BUCKEYE        SUNNY    100  59  25 W9        29.78F HX 100
GLENDALE       MOSUNNY  100  63  28 S9        29.79F HX 102
LUKE AFB       MOSUNNY  101  63  28 S5        29.76F HX 102
DEER VALLEY    MOSUNNY   98  62  30 MISG      29.79F
SCOTTSDALE     MOSUNNY  100  62  28 CALM      29.81F HX 101
MESA-FALCON    MOSUNNY   99  64  32 SW6       29.79F HX 101
MESA-GATEWAY   MOSUNNY   99  63  30 SW9       29.80F HX 100
CHANDLER       SUNNY    100  63  28 W7        29.78F HX 102
$$

AZZ539-553-232300-
SOUTHWEST MARICOPA COUNTY AND PINAL COUNTY

CITY           SKY/WX    TMP DP  RH WIND       PRES   REMARKS
CASA GRANDE    MOSUNNY   99  63  30 VRB5      29.80F HX 101
GILA BEND      FAIR     101  62  27 W12       29.76F HX 102
$$

AZZ503-504-507>509-232300-
SOUTHEAST ARIZONA

CITY           SKY/WX    TMP DP  RH WIND       PRES   REMARKS
TUCSON         PTSUNNY   84  68  58 W12       29.95R
DAVIS-MONTHAN  PTSUNNY   89  68  49 SW14      29.93S
NOGALES        LGT RAIN  73  68  84 SW9       30.05R
SIERRA VISTA   CLOUDY    79  63  57 N13       30.07F
DOUGLAS        MOSUNNY   79  65  62 E13       30.02F
SAFFORD        MOSUNNY   93  61  34 CALM      29.89F
$$

AZZ532-232300-
SOUTHWEST ARIZONA

CITY           SKY/WX    TMP DP  RH WIND       PRES   REMARKS
YUMA           PTSUNNY  101  63  28 S18G31    29.74F HX 103
$$

CAZ041-043-047-048-061-525>527-560>570-232300-
SOUTHERN CALIFORNIA

CITY           SKY/WX    TMP DP  RH WIND       PRES   REMARKS
DOWNTOWN L.A.  SUNNY     82  65  56 W6        29.83F
L.A. AIRPORT   MOSUNNY   75  65  70 W14       29.85F
SAN DIEGO      MOSUNNY   76  65  68 SW10      29.87S
BURBANK        SUNNY     88  63  43 S12       29.83F
ONTARIO        MOSUNNY   95  54  25 SW10      29.83F
RIVERSIDE      SUNNY     96  55  25 W12       29.81F
PALM SPRINGS   SUNNY    106  63  24 SE12      29.73F HX 109
EL CENTRO NAS  CLOUDY   104  64  27 SE12      29.71F HAZE    HX 107
IMPERIAL       CLOUDY   106  67  28 SE15      29.68F HAZE    HX 112
BLYTHE         MOSUNNY  104  64  27 S14G25    29.73F HX 107
NEEDLES        SUNNY    111  55  16 S12       29.71F HX 110
$$

NVZ020-UTZ003-232300-
SOUTHERN NEVADA-UTAH

CITY           SKY/WX    TMP DP  RH WIND       PRES   REMARKS
LAS VEGAS      MOSUNNY  108  54  16 NE9       29.78F HX 106
SALT LAKE CITY PTSUNNY   97  46  17 W16       30.00F
$$

NMZ009-TXZ055-232300-
NEW MEXICO-WEST TEXAS

CITY           SKY/WX    TMP DP  RH WIND       PRES   REMARKS
ALBUQUERQUE    PTSUNNY   86  51  29 SW6       30.11F
EL PASO        PTSUNNY   82  65  56 NW12      29.98F
$$


........................KEY........................
SKY/WX - SKY CONDITION/WEATHER
TMP    - TEMPERATURE IN FAHRENHEIT
DP     - DEW POINT IN FAHRENHEIT
RH     - RELATIVE HUMIDITY IN PERCENT
WIND   - DIRECTION AND SPEED IN MILES PER HOUR (MPH)
VRB    - VARIABLE WIND DIRECTION
PRES   - MEAN SEA LEVEL PRESSURE IN INCHES OF MERCURY
         F - FALLING PRESSURE   R - RISING PRESSURE
         S - STEADY PRESSURE
VSB    - VISIBILITY IN MILES
HX     - HEAT INDEX IN FAHRENHEIT
WCI    - WIND CHILL INDEX IN FAHRENHEIT
TC     - TEMPERATURE IN CELSIUS WHICH IS ALSO KNOWN AS
         TEMPERATURE IN CENTIGRADE
AFB    - AIR FORCE BASE
         LUKE AFB IS LUKE AIR FORCE BASE
         DAVIS-MONTHAN IS DAVIS-MONTHAN AIR FORCE BASE
NAS    - NAVAL AIR STATION
         EL CENTRO NAS IS EL CENTRO NAVAL AIR STATION
N/A    - NOT AVAILABLE





USA.gov is the U.S. government's official web portal to all federal, state and local government web resources and services.